Location: Borea
(45.6167°N, 23.0167°E)
Time: 01:03:31
(UTC+00:00)

OPS 8068 - Pass Details

Date: 01 March 2024
Orbit: 631 x 963 km, 98.3° (Epoch: 13 April)

Event Time Altitude Azimuth Distance (km) Brightness Sun altitude
Rises 04:32:34 0° 216° (SW) 2,940 ? -6.6°
Reaches altitude 10° 04:35:53 10° 244° (WSW) 2,074 ? -6.0°
Maximum altitude 04:38:01 13° 273° (W) 1,898 ? -5.7°
Drops below altitude 10° 04:40:14 10° 301° (WNW) 2,148 ? -5.3°
Sets 04:43:49 0° 329° (NNW) 3,143 ? -4.7°
